This is the latest recevied weather packets stored in our database for station/object HB9MIR-13. If no packets are shown the sender has not sent any weather packets the latest 1 day(s).
| Time | Temp. | Humidity | Pressure | Rain* | Wind** | Luminosity | Snow |
|---|---|---|---|---|---|---|---|
| 1777940061 | 9.44° C | 96% | 1010.7 hPa | 0 mm | 0 m/s | 0 W/m² | - |
| 1777939325 | 10° C | 94% | 1010.7 hPa | 0 mm | 0 m/s | 0 W/m² | - |
| 1777938611 | 10.56° C | 96% | 1010.9 hPa | 0 mm | 0 m/s | 0 W/m² | - |
| 1777937924 | 10.56° C | 94% | 1011 hPa | 0 mm | 0 m/s | 0 W/m² | - |
| 1777937224 | 10.56° C | 94% | 1011.1 hPa | 0 mm | 0 m/s | 0 W/m² | - |
| 1777936523 | 11.11° C | 94% | 1011.1 hPa | 0 mm | 0 m/s | 0 W/m² | - |
| 1777935787 | 11.11° C | 93% | 1011.1 hPa | 0 mm | 0 m/s | 0 W/m² | - |
| 1777935085 | 11.67° C | 92% | 1011.2 hPa | 0 mm | 0 m/s | 0 W/m² | - |
| 1777934398 | 11.67° C | 92% | 1011.3 hPa | 0 mm | 0 m/s | 0 W/m² | - |
| 1777933711 | 11.67° C | 91% | 1011.3 hPa | 0 mm | 0 m/s | 0 W/m² | - |
| 1777933012 | 11.67° C | 91% | 1011.2 hPa | 0 mm | 0 m/s | 0 W/m² | - |
| 1777932324 | 12.22° C | 91% | 1011.1 hPa | 0 mm | 0 m/s | 0 W/m² | - |
| 1777931627 | 12.22° C | 90% | 1011.3 hPa | 0 mm | 0 m/s | 0 W/m² | - |
| 1777930942 | 12.78° C | 89% | 1011.4 hPa | 0 mm | 0 m/s | 0 W/m² | - |
| 1777930237 | 12.78° C | 88% | 1011.5 hPa | 0 mm | 0 m/s | 0 W/m² | - |
| 1777929075 | 12.78° C | 89% | 1011.8 hPa | 0 mm | 0 m/s | 0 W/m² | - |
| 1777928375 | 12.78° C | 88% | 1011.9 hPa | 0 mm | 0 m/s | 0 W/m² | - |
| 1777927674 | 12.78° C | 87% | 1012 hPa | 0 mm | 0 m/s | 0 W/m² | - |
| 1777926986 | 12.78° C | 87% | 1012 hPa | 0 mm | 0 m/s | 0 W/m² | - |
| 1777926285 | 12.78° C | 87% | 1012 hPa | 0 mm | 0 m/s | 0 W/m² | - |
| 1777925597 | 13.33° C | 86% | 1011.9 hPa | 0 mm | 0 m/s | 0 W/m² | - |
| 1777924897 | 13.33° C | 83% | 1011.9 hPa | 0 mm | 0 m/s | 0 W/m² | - |
| 1777924213 | 13.89° C | 82% | 1011.8 hPa | 0 mm | 0 m/s | 0 W/m² | - |
* Rain latest hour (hover to see other rain measurements)
** Current wind speed in m/s (hover to see current wind gust speed)